This is the latest recevied weather packets stored in our database for station/object WD8INF-9. If no packets are shown the sender has not sent any weather packets the latest 10 day(s).
| Time | Temp. | Humidity | Pressure | Rain* | Wind** | Luminosity | Snow |
|---|---|---|---|---|---|---|---|
| 1778277244 | 20° C | - | 1007.5 hPa | 0 mm | - | - | - |
| 1778276943 | 20° C | - | 1007.2 hPa | 0 mm | - | - | - |
| 1778276643 | 20° C | - | 1007.4 hPa | 0 mm | - | - | - |
| 1778276343 | 20° C | - | 1007.4 hPa | 0 mm | - | - | - |
| 1778276043 | 20° C | - | 1007.6 hPa | 0 mm | - | - | - |
| 1778275740 | 20° C | - | 1007.4 hPa | 0 mm | - | - | - |
| 1778275440 | 20° C | - | 1007.5 hPa | 0 mm | - | - | - |
| 1778275141 | 20° C | - | 1007.5 hPa | 0 mm | - | - | - |
| 1778274839 | 20° C | - | 1007.6 hPa | 0 mm | - | - | - |
| 1778274538 | 20° C | - | 1007.9 hPa | 0 mm | - | - | - |
| 1778274238 | 20° C | - | 1008.1 hPa | 0 mm | - | - | - |
| 1778273938 | 20° C | - | 1007.8 hPa | 0 mm | - | - | - |
| 1778273639 | 20° C | - | 1007.8 hPa | 0 mm | - | - | - |
| 1778273336 | 20° C | - | 1008.3 hPa | 0 mm | - | - | - |
| 1778273036 | 20.56° C | - | 1008.1 hPa | 0 mm | - | - | - |
| 1778272736 | 20.56° C | - | 1008.4 hPa | 0 mm | - | - | - |
| 1778272436 | 21.11° C | - | 1008.4 hPa | 0 mm | - | - | - |
| 1778272135 | 21.67° C | - | 1008.4 hPa | 0 mm | - | - | - |
| 1778271835 | 21.11° C | - | 1008.6 hPa | 0 mm | - | - | - |
| 1778271535 | 20.56° C | - | 1008.5 hPa | 0 mm | - | - | - |
| 1778271235 | 20.56° C | - | 1008.1 hPa | 0 mm | - | - | - |
| 1778270935 | 20.56° C | - | 1008.7 hPa | 0 mm | - | - | - |
| 1778270634 | 20.56° C | - | 1008.4 hPa | 0 mm | - | - | - |
| 1778270334 | 20.56° C | - | 1008.5 hPa | 0 mm | - | - | - |
| 1778270034 | 21.11° C | - | 1008.5 hPa | 0 mm | - | - | - |
* Rain since midnight (hover to see other rain measurements)
** Current wind speed in m/s (hover to see current wind gust speed)